Torna al catalogo

JSW-03

AttivoComunicazioniLEO
NORAD 62185·PAYLOAD·🇨🇳 China
Questo nome del satellite non è ancora stato confermato da fonti ufficiali.

Lanciato Nov 30, 2024 da Wenchang Space Launch Site

Loading…

Prossimi Passaggi (prossime 24 ore)

TLE

AggiornatoSource: Space-Track

Epoca: Sep 14, 2026, 22:01 UTC

1 62185U 24226A   26257.91761884 -.00000129  00000-0  86371-5 0  9997
2 62185  50.0049 285.0183 0056115  70.9699 289.7254 13.60155323 88920

Traccia JSW-03 in tempo reale con AllMySat

Download on the App Store